Temp
62 62 62 62 61 60 60 60 60 60 60 60 60 60 60 60 60 60 59 59 59 60 60 60 61 61 71 81 88 89 75 77 90 92 93 92 90 89 85 89 90 87 88 92 93 93 92
62 62 61 61 60 60 60 59 59 59 60 59 59 59 59 59 59 59 59 59 58 58 59 60 61 61 77 76 100 95 96 92 96 95 94 96 92 94 89 89 88 91 90 91 92 92 92
61 61 61 60 60 59 59 59 59 59 59 59 59 59 58 58 59 59 59 58 58 58 60 61 62 73 78 86 102 102 99 97 99 98 93 96 97 91 91 86 93 90 83 88 89 91 89
61 61 60 60 60 59 59 59 59 59 59 59 59 58 58 58 59 59 59 59 59 60 60 61 62 76 81 100 104 100 101 98 100 99 97 98 98 93 90 93 87 84 85 78 90 87 90
61 60 60 60 60 59 59 58 58 59 59 59 59 58 58 59 59 59 59 58 58 60 61 62 70 77 84 85 92 100 101 95 97 97 97 96 95 89 90 83 81 83 76 78 81 88 87
61 60 60 60 59 59 58 58 58 58 59 59 58 58 58 58 59 59 58 57 61 61 67 78 83 78 89 89 96 98 102 99 93 92 90 89 89 84 86 83 72 77 77 79 78 84 85
60 60 60 60 60 59 58 58 58 58 58 58 58 58 57 58 58 58 63 77 76 76 82 85 88 88 92 98 100 96 99 95 94 89 81 87 81 78 81 82 82 80 77 77 80 83 81
60 60 60 60 59 58 58 58 58 58 58 57 57 57 57 58 58 58 68 84 89 91 81 92 92 92 94 98 88 93 99 88 86 81 86 82 77 82 83 82 80 79 77 77 80 82 80
59 59 59 59 58 58 58 58 58 58 58 57 56 56 56 57 58 62 85 91 100 96 81 87 93 93 92 96 89 89 94 90 85 82 82 78 81 83 80 79 76 78 75 75 76 80 81
59 59 59 58 58 58 58 58 57 57 57 57 56 56 56 57 59 94 90 98 100 96 75 79 85 90 93 95 85 95 98 92 85 80 83 80 84 78 78 76 76 70 80 78 75 73 68
59 58 58 58 57 57 57 57 57 57 56 56 56 56 56 54 77 89 94 100 100 91 52 84 86 98 94 89 89 88 98 92 82 81 80 77 78 76 74 76 78 73 79 76 75 72 72
58 58 58 58 58 57 57 56 56 56 56 56 56 56 56 68 78 93 100 98 91 71 51 77 86 84 84 86 86 89 89 93 91 82 82 80 84 80 78 79 78 79 76 77 76 74 63
58 58 58 57 57 57 56 56 56 56 56 56 56 55 58 81 92 100 99 90 71 63 80 75 78 82 82 79 80 83 81 79 76 69 70 76 76 80 78 75 80 76 72 63 61 63 62
58 57 57 57 57 56 56 56 56 56 55 55 54 54 62 84 99 95 91 78 61 73 75 83 79 79 75 79 79 78 78 75 80 78 73 69 65 74 78 74 72 72 70 63 52 58 64
57 57 57 57 57 56 56 56 56 55 55 54 52 77 87 93 93 91 82 68 69 76 81 76 78 72 74 76 76 76 76 76 79 78 68 68 69 76 76 76 75 71 66 74 64 68 63
57 57 57 57 56 56 56 56 56 56 55 54 76 90 91 94 92 87 76 65 77 81 80 79 70 75 70 74 72 74 74 79 75 77 79 73 63 73 75 75 76 72 76 63 66 52 52
56 57 57 56 56 56 56 56 56 55 54 54 76 85 88 96 90 82 71 75 81 85 82 76 74 72 73 72 73 73 73 77 78 76 78 75 68 67 71 68 70 69 67 67 67 64 55
56 56 56 56 56 56 56 56 56 55 53 68 83 78 91 92 76 80 75 80 68 80 83 79 78 76 74 74 71 71 71 74 80 78 70 74 67 63 67 75 75 73 69 69 60 58 63
56 56 56 56 56 56 56 56 55 55 54 65 79 85 92 89 70 74 80 80 80 78 78 77 74 77 78 72 66 71 72 79 79 76 71 72 64 58 62 69 70 65 69 68 67 63 56
56 56 56 56 56 56 56 56 55 55 54 67 81 75 84 85 83 72 72 71 74 82 78 80 77 78 73 71 74 68 70 75 77 76 65 67 65 60 57 63 68 62 65 68 64 56 59
55 56 56 56 56 56 56 55 55 54 54 69 82 73 73 70 76 71 72 72 71 72 78 79 74 74 72 66 68 67 72 74 74 65 72 68 58 64 66 68 68 66 65 67 63 63 56
55 55 55 56 56 55 55 55 55 54 53 81 71 69 75 74 73 71 65 69 69 72 72 71 69 74 74 68 70 67 72 71 69 74 69 70 58 62 60 66 66 63 66 66 66 66 65
55 55 55 55 55 55 55 55 55 54 58 73 75 77 72 66 72 70 71 69 69 72 74 77 75 74 72 75 80 80 80 77 75 70 68 65 62 58 54 64 64 57 64 66 67 69 67
54 55 55 55 55 55 55 55 55 55 54 67 72 69 68 68 74 72 69 70 69 71 69 75 76 72 78 83 82 80 79 77 75 73 73 64 62 61 55 58 44 63 72 71 66 68 71
54 55 55 55 55 55 55 55 55 55 55 65 72 68 68 65 72 72 69 70 72 73 71 72 76 78 79 76 69 63 65 65 68 72 71 71 63 56 49 50 57 63 66 64 62 62 71
54 54 54 55 54 55 55 55 55 55 55 63 70 73 67 65 69 71 69 71 68 69 71 73 77 78 76 72 68 56 55 60 57 59 69 69 66 57 53 45 41 57 67 72 70 53 70
54 54 54 54 54 55 55 55 55 55 55 59 66 67 67 65 75 71 68 66 72 70 68 72 72 71 74 66 62 60 58 66 54 54 56 54 56 50 49 46 51 59 67 69 48 52 66
53 53 54 54 54 54 54 54 55 55 55 57 67 71 66 68 74 74 74 69 71 71 65 69 68 68 68 61 62 62 60 63 59 62 59 55 50 47 47 43 39 54 60 46 53 61 58
53 53 53 53 53 53 54 54 54 55 55 55 63 73 72 64 71 77 77 78 74 72 68 70 67 66 71 65 65 66 61 62 59 50 61 49 49 46 46 44 50 51 45 48 51 50 53
MSLP
1021.43 1020.88 1020.51 1019.99 1019.44 1018.93 1018.45 1017.87 1017.49 1016.94 1016.61 1016.24 1015.79 1015.45 1015.20 1014.96 1014.70 1014.46 1014.29 1014.10 1013.92 1013.78 1013.67 1013.50 1013.40 1013.19 1012.38 1009.20 1005.81 1006.47 1007.24 1007.57 1007.43 1007.17 1005.60 1004.74 1004.25 1003.84 1003.02 1002.40 1002.41 1002.14 1002.13 1001.51 1001.58 1001.48 1001.45
1021.43 1020.86 1020.49 1020.06 1019.43 1018.93 1018.37 1017.83 1017.47 1016.82 1016.33 1015.90 1015.51 1015.17 1014.90 1014.64 1014.39 1014.14 1013.92 1013.68 1013.63 1013.61 1013.57 1013.34 1013.22 1013.13 1011.15 1007.25 1005.02 1006.12 1006.22 1006.81 1006.04 1005.82 1005.11 1004.47 1003.82 1003.58 1002.84 1002.18 1001.94 1001.68 1001.85 1001.24 1001.24 1001.17 1001.31
1021.37 1020.79 1020.28 1019.92 1019.44 1018.92 1018.39 1017.92 1017.32 1016.72 1016.24 1015.69 1015.21 1014.89 1014.71 1014.47 1014.14 1013.87 1013.61 1013.44 1013.33 1013.47 1013.37 1013.17 1013.02 1012.31 1009.45 1005.68 1004.71 1005.19 1005.79 1005.40 1005.19 1004.67 1004.37 1004.34 1003.86 1003.64 1002.91 1002.24 1002.13 1002.02 1001.91 1001.33 1001.15 1001.08 1001.11
1021.53 1020.96 1020.42 1020.01 1019.45 1018.79 1018.37 1017.77 1017.15 1016.53 1015.97 1015.46 1015.01 1014.67 1014.39 1014.14 1013.80 1013.56 1013.33 1013.06 1012.88 1012.94 1012.84 1012.84 1012.77 1011.36 1006.74 1004.83 1004.58 1004.91 1005.03 1004.86 1004.94 1004.81 1004.43 1004.28 1004.35 1003.62 1002.93 1002.17 1002.34 1001.82 1001.38 1000.34 999.71 1001.05 1001.20
1021.78 1021.20 1020.60 1020.01 1019.30 1018.71 1018.21 1017.61 1016.99 1016.31 1015.74 1015.25 1014.83 1014.43 1014.05 1013.72 1013.37 1013.14 1012.87 1012.67 1012.46 1012.31 1012.39 1012.50 1011.95 1009.88 1005.04 1005.72 1004.90 1004.42 1004.56 1004.12 1004.51 1004.64 1004.62 1004.80 1004.26 1003.38 1002.61 1002.19 1001.20 1000.75 999.75 999.66 1000.03 1000.94 1000.92
1021.95 1021.31 1020.67 1019.96 1019.25 1018.67 1018.10 1017.44 1016.77 1016.14 1015.62 1015.10 1014.61 1014.18 1013.78 1013.43 1013.10 1012.89 1012.62 1012.51 1012.23 1012.07 1011.89 1011.08 1009.61 1008.05 1004.93 1003.45 1003.60 1003.94 1004.20 1003.86 1003.94 1004.05 1004.29 1004.25 1003.38 1002.22 1001.66 1000.73 999.67 999.01 999.31 999.69 999.84 1000.65 1001.28
1022.11 1021.41 1020.71 1019.96 1019.28 1018.66 1018.00 1017.35 1016.72 1016.14 1015.53 1014.88 1014.35 1013.94 1013.56 1013.19 1012.85 1012.71 1012.36 1011.37 1011.05 1009.87 1008.54 1005.88 1004.59 1003.78 1002.76 1002.90 1003.45 1003.45 1003.81 1003.80 1003.39 1003.48 1002.67 1002.89 1001.74 1000.64 1000.55 1001.18 1000.93 1000.58 1000.48 999.94 1000.29 1001.38 1001.51
1022.27 1021.49 1020.80 1020.13 1019.41 1018.70 1018.03 1017.32 1016.65 1016.08 1015.42 1014.81 1014.28 1013.80 1013.31 1012.95 1012.70 1012.52 1011.98 1008.55 1006.30 1006.02 1004.90 1004.04 1003.45 1002.94 1002.77 1002.37 1002.60 1002.87 1003.44 1003.19 1002.93 1001.94 1001.72 1001.89 1000.98 1001.74 1002.44 1002.41 1001.96 1001.40 1000.90 1000.36 1000.54 1001.69 1002.03
1022.45 1021.75 1021.06 1020.29 1019.49 1018.69 1017.91 1017.18 1016.49 1015.90 1015.29 1014.74 1014.17 1013.63 1013.13 1012.76 1012.45 1012.01 1009.03 1006.72 1005.79 1005.57 1004.23 1002.93 1002.25 1001.58 1001.96 1002.04 1001.62 1002.15 1002.79 1002.34 1001.77 1001.19 1001.53 1000.81 1001.38 1002.82 1003.01 1002.52 1002.36 1001.74 1001.25 1001.13 1001.00 1001.35 1002.05
1022.74 1022.02 1021.23 1020.43 1019.56 1018.68 1017.85 1017.08 1016.37 1015.71 1015.14 1014.58 1013.96 1013.40 1013.03 1012.56 1012.43 1007.82 1006.59 1005.74 1005.64 1005.41 1003.18 1001.89 1001.62 1001.32 1001.50 1001.14 1001.50 1001.93 1002.09 1001.64 1001.50 1001.01 1000.99 1001.26 1002.39 1003.08 1003.10 1002.82 1003.24 1002.63 1002.16 1002.14 1002.16 1002.01 1000.92
1022.95 1022.24 1021.47 1020.59 1019.66 1018.74 1017.87 1017.09 1016.35 1015.60 1014.88 1014.27 1013.68 1013.09 1012.73 1012.58 1010.21 1006.85 1005.60 1005.50 1005.37 1005.54 1002.78 1000.69 1000.68 1001.22 1001.11 1000.97 1001.33 1002.06 1002.07 1001.81 1001.17 1001.23 1002.03 1001.46 1002.64 1003.10 1003.15 1003.03 1003.90 1003.47 1003.36 1003.22 1002.74 1002.15 1001.55
1023.23 1022.45 1021.59 1020.64 1019.68 1018.81 1017.97 1017.17 1016.35 1015.47 1014.56 1013.74 1013.13 1012.70 1012.46 1011.40 1009.67 1006.53 1005.44 1005.46 1005.42 1004.11 1002.48 1000.59 1000.54 1000.81 1000.84 1000.94 1001.19 1001.67 1001.88 1002.12 1001.57 1001.64 1002.08 1002.28 1003.23 1003.67 1003.65 1004.20 1004.36 1004.29 1003.78 1002.82 1002.40 1001.78 1000.85
1023.49 1022.68 1021.74 1020.78 1019.84 1018.91 1018.00 1017.05 1016.12 1015.14 1014.19 1013.22 1012.42 1011.96 1011.92 1008.86 1005.87 1005.50 1005.41 1005.13 1003.78 1001.76 1000.94 1000.17 1000.45 1000.84 1000.62 1000.81 1001.37 1001.52 1001.54 1001.72 1001.80 1001.79 1001.76 1002.41 1003.11 1003.87 1004.83 1004.19 1003.99 1004.29 1003.34 1001.83 1000.84 1000.02 999.15
1023.69 1022.83 1021.89 1020.95 1019.96 1018.96 1017.95 1016.87 1015.80 1014.77 1013.65 1012.51 1011.52 1011.17 1009.49 1008.05 1005.89 1006.08 1005.63 1004.56 1002.15 1000.48 1000.00 1000.06 1000.98 1001.10 1000.96 1001.09 1001.45 1001.73 1001.62 1001.44 1001.89 1002.21 1001.79 1001.66 1002.01 1003.54 1004.62 1004.51 1003.99 1003.81 1003.79 1002.45 1000.85 999.66 999.41
1023.89 1023.03 1022.08 1021.05 1020.02 1019.02 1018.00 1016.93 1015.68 1014.32 1013.13 1011.90 1010.60 1008.90 1007.49 1005.95 1006.51 1006.46 1005.29 1003.03 1001.12 999.92 999.65 1000.46 1001.17 1001.13 1000.94 1001.70 1002.14 1001.79 1001.78 1001.49 1001.49 1002.35 1002.89 1002.43 1002.25 1004.15 1004.84 1005.19 1005.33 1004.05 1004.00 1003.66 1002.89 1001.88 1000.95
1024.13 1023.20 1022.25 1021.22 1020.20 1019.22 1018.16 1016.92 1015.67 1014.15 1012.42 1011.66 1009.33 1006.21 1005.05 1005.65 1006.04 1005.84 1004.49 1002.08 1000.37 1000.69 1000.90 1000.92 1000.88 1000.74 1000.76 1000.73 1001.81 1001.67 1001.58 1001.74 1002.38 1003.78 1004.04 1003.46 1003.66 1004.21 1004.72 1005.78 1005.47 1005.25 1004.64 1003.99 1003.47 1002.19 1001.00
1024.30 1023.40 1022.44 1021.44 1020.42 1019.40 1018.35 1017.14 1015.79 1014.19 1012.26 1010.46 1008.82 1004.93 1005.38 1005.24 1005.84 1004.71 1002.92 1001.23 1000.51 1000.57 1001.43 1001.60 1001.34 1001.22 1001.29 1001.45 1001.65 1001.62 1001.70 1002.38 1003.38 1004.17 1004.51 1004.26 1004.87 1004.43 1005.18 1005.01 1004.07 1004.80 1004.65 1004.67 1004.19 1003.43 1002.24
1024.41 1023.57 1022.59 1021.63 1020.72 1019.68 1018.54 1017.33 1016.03 1014.81 1012.58 1009.48 1007.49 1004.34 1005.11 1005.26 1004.74 1003.32 1002.07 1001.34 1001.24 1001.19 1001.76 1002.06 1002.28 1001.94 1001.68 1001.91 1002.17 1002.23 1002.04 1002.67 1003.79 1004.30 1004.75 1005.07 1005.27 1004.45 1003.99 1004.06 1004.92 1005.03 1004.70 1004.36 1004.09 1003.62 1003.27
1024.58 1023.73 1022.83 1021.83 1020.90 1019.95 1018.86 1017.68 1016.22 1015.10 1014.91 1012.97 1007.83 1004.57 1004.62 1004.77 1003.50 1002.38 1001.52 1001.37 1001.44 1001.83 1001.72 1002.01 1002.08 1002.17 1002.27 1002.52 1002.83 1002.84 1002.81 1003.43 1004.47 1004.92 1005.16 1005.79 1005.67 1004.98 1004.06 1004.40 1005.39 1005.36 1005.07 1005.29 1005.29 1005.35 1004.48
1024.72 1023.89 1023.02 1022.10 1021.22 1020.33 1019.27 1018.04 1016.60 1014.81 1014.23 1013.08 1007.97 1004.78 1003.85 1003.97 1003.74 1003.78 1002.69 1002.60 1001.47 1001.47 1002.00 1001.97 1002.22 1002.31 1002.85 1002.87 1003.03 1003.20 1003.49 1004.12 1005.06 1005.38 1006.32 1006.87 1006.29 1005.69 1004.49 1003.30 1004.09 1004.67 1005.12 1005.24 1005.40 1005.20 1004.27
1024.82 1024.02 1023.17 1022.33 1021.55 1020.70 1019.70 1018.49 1017.17 1015.42 1012.98 1012.69 1008.27 1006.89 1007.07 1004.76 1004.07 1004.86 1004.38 1003.59 1002.58 1001.91 1002.27 1002.44 1002.41 1002.64 1002.71 1002.86 1002.96 1003.23 1003.57 1003.77 1005.24 1006.11 1006.46 1007.02 1006.50 1006.03 1005.28 1004.75 1004.56 1004.52 1004.67 1004.52 1004.61 1004.98 1004.68
1024.88 1024.10 1023.29 1022.50 1021.79 1020.99 1020.13 1019.13 1017.96 1016.42 1013.77 1010.58 1010.35 1009.34 1007.92 1006.42 1005.81 1005.34 1004.52 1004.00 1003.35 1002.85 1002.91 1002.69 1002.94 1002.65 1002.61 1002.58 1002.75 1002.67 1002.81 1003.50 1004.09 1005.02 1006.21 1006.58 1006.63 1006.49 1005.66 1005.10 1004.70 1004.31 1004.42 1004.40 1004.20 1004.17 1003.99
1024.89 1024.14 1023.34 1022.61 1021.90 1021.21 1020.49 1019.71 1018.77 1017.67 1015.49 1013.08 1012.31 1010.98 1009.89 1007.10 1005.49 1005.24 1004.42 1004.51 1004.35 1004.07 1003.89 1003.36 1002.89 1002.71 1002.60 1002.41 1002.27 1002.72 1002.84 1003.44 1004.09 1004.75 1005.16 1006.05 1006.33 1006.33 1005.31 1004.94 1004.23 1003.51 1003.42 1003.65 1003.53 1003.60 1003.71
1024.76 1024.04 1023.30 1022.67 1022.01 1021.32 1020.63 1020.03 1019.36 1018.59 1018.14 1016.16 1013.90 1013.03 1010.18 1007.09 1005.55 1005.15 1005.56 1005.64 1005.14 1004.73 1004.30 1003.74 1003.57 1003.59 1003.42 1003.51 1003.24 1003.35 1003.37 1003.70 1004.28 1004.69 1005.17 1005.56 1005.83 1006.02 1005.58 1005.20 1003.92 1003.38 1003.57 1003.57 1003.46 1003.45 1002.90
1024.63 1023.93 1023.27 1022.61 1021.97 1021.34 1020.67 1020.09 1019.54 1018.85 1018.30 1016.59 1014.63 1013.66 1011.11 1008.58 1006.68 1005.78 1006.04 1005.69 1005.37 1004.81 1004.53 1004.17 1004.09 1004.31 1004.64 1004.32 1003.76 1003.57 1003.46 1003.71 1003.77 1004.10 1004.56 1005.11 1005.87 1006.05 1005.90 1005.47 1004.67 1003.73 1003.84 1004.03 1004.09 1003.75 1003.75
1024.44 1023.80 1023.12 1022.43 1021.84 1021.25 1020.60 1020.00 1019.51 1018.87 1018.27 1017.01 1014.86 1013.94 1012.91 1010.01 1007.25 1007.44 1006.78 1006.08 1005.61 1004.81 1004.46 1004.24 1004.92 1005.41 1005.20 1004.35 1003.56 1003.26 1002.68 1002.92 1003.54 1004.49 1005.32 1005.58 1006.12 1006.89 1006.93 1006.15 1005.43 1005.11 1004.55 1004.64 1004.61 1004.25 1004.33
1024.19 1023.53 1022.83 1022.18 1021.55 1021.02 1020.45 1019.83 1019.32 1018.79 1018.19 1017.42 1015.18 1014.78 1013.38 1010.66 1008.15 1008.25 1007.28 1007.14 1006.70 1006.14 1005.40 1004.82 1004.98 1005.27 1005.39 1004.45 1003.63 1003.04 1002.74 1003.12 1003.72 1004.46 1005.22 1006.50 1006.90 1007.10 1007.34 1007.70 1007.69 1007.17 1006.00 1006.56 1006.76 1006.44 1006.26
1023.88 1023.19 1022.40 1021.78 1021.23 1020.69 1020.20 1019.60 1019.03 1018.57 1018.00 1017.38 1014.78 1014.07 1013.63 1011.03 1008.80 1008.57 1008.26 1007.99 1007.44 1006.80 1006.26 1006.12 1005.96 1005.65 1005.22 1004.71 1004.08 1003.44 1003.47 1003.75 1004.83 1004.98 1005.74 1006.74 1007.65 1008.31 1009.02 1009.43 1009.56 1010.16 1009.12 1010.91 1009.80 1008.36 1008.24
1023.68 1022.91 1022.13 1021.42 1020.83 1020.27 1019.81 1019.22 1018.71 1018.17 1017.76 1017.37 1014.86 1013.51 1013.73 1012.76 1009.65 1009.26 1008.86 1008.82 1008.81 1008.61 1008.32 1007.19 1006.75 1006.56 1005.70 1005.24 1004.84 1004.43 1004.53 1005.27 1005.93 1006.70 1007.74 1009.88 1011.47 1010.65 1011.23 1011.68 1012.72 1013.08 1013.46 1013.82 1012.80 1011.70 1011.02
Wind_Speed
16 17 18 18 18 17 17 17 16 17 16 15 15 14 13 12 12 12 12 11 12 11 12 11 11 11 10 10 9 11 13 11 14 14 11 12 14 16 14 13 12 14 14 12 10 11 9
16 17 18 18 17 17 17 17 16 16 16 16 14 14 13 13 12 12 12 11 12 12 12 11 10 10 11 13 13 14 14 14 16 17 16 14 10 14 9 13 13 8 13 13 10 11 9
19 19 19 18 17 16 17 17 17 15 15 16 14 13 13 12 12 12 11 11 11 13 11 10 9 9 11 10 7 11 14 12 10 9 8 8 9 8 8 7 10 9 12 12 12 12 9
18 19 18 18 17 17 18 17 17 16 15 14 14 14 13 12 12 11 11 10 10 12 10 9 7 10 10 6 7 12 13 8 9 4 7 2 7 11 9 5 7 13 14 14 13 2 8
18 18 18 18 19 18 18 18 18 17 16 15 14 14 13 13 12 11 10 10 13 10 8 8 9 9 6 5 10 13 13 13 10 8 6 2 9 14 11 12 14 10 14 12 12 4 6
19 19 20 20 20 19 19 19 18 18 18 16 14 14 12 12 10 9 9 7 2 7 8 10 8 8 9 14 12 15 13 7 11 10 10 12 10 13 15 14 10 10 9 6 8 11 10
20 20 21 21 21 21 21 20 19 18 19 18 17 14 12 11 9 7 10 6 8 8 12 12 10 12 13 10 12 14 15 12 7 13 14 15 15 6 13 11 12 7 7 8 4 6 12
21 22 23 23 23 22 21 21 20 19 20 19 18 16 14 12 9 4 8 9 9 9 9 16 8 7 2 10 14 15 15 13 11 17 8 9 8 10 4 6 9 9 12 13 5 3 8
22 23 23 23 23 23 23 23 22 22 21 19 18 16 14 12 8 5 12 13 8 8 9 10 10 12 13 15 16 16 16 16 12 11 10 8 13 5 5 5 8 11 9 14 10 5 9
22 22 23 24 24 24 24 24 24 24 22 20 17 16 14 10 4 6 11 4 8 3 8 15 13 6 9 10 6 1 15 12 5 9 10 5 9 4 7 8 3 12 9 9 11 13 14
23 23 23 24 24 24 25 25 25 25 24 22 20 15 12 9 12 11 6 6 8 5 6 19 11 7 5 13 13 10 7 10 14 6 3 3 9 9 8 5 9 14 9 11 13 14 16
23 24 24 25 25 25 25 25 26 26 26 24 21 16 11 8 8 14 7 6 6 10 5 8 10 11 13 9 8 9 12 10 8 7 7 9 5 4 6 7 7 10 14 14 14 13 14
23 23 24 25 25 26 26 28 28 28 28 27 23 16 9 9 5 3 5 8 9 16 3 12 10 11 14 8 8 9 13 14 13 12 15 12 13 6 6 11 11 12 14 12 12 14 15
23 24 25 25 26 26 27 29 30 30 30 27 24 7 13 10 5 6 7 10 15 16 17 9 4 6 11 9 11 7 11 14 8 15 14 11 12 12 7 5 10 9 7 11 17 13 2
23 23 25 26 27 28 29 30 32 31 30 29 23 7 9 7 11 6 9 13 17 15 5 6 7 10 13 8 8 9 14 15 5 5 12 13 10 9 4 2 6 4 10 7 10 16 14
23 24 25 26 26 29 30 31 30 34 35 28 7 7 6 5 6 7 10 16 13 1 4 4 12 7 12 10 11 11 13 5 4 4 5 3 10 9 9 6 10 11 10 8 11 12 17
22 23 24 25 25 28 30 32 33 34 37 28 7 6 8 7 6 9 12 16 14 8 4 8 12 14 7 13 6 15 7 10 5 8 6 4 7 7 4 12 13 11 12 9 9 11 12
22 23 24 25 25 29 30 32 33 32 37 13 7 6 6 6 9 10 14 18 5 8 8 10 8 15 11 7 9 11 9 5 7 5 10 4 6 11 15 4 4 10 14 13 10 13 8
22 23 24 25 25 28 29 32 32 30 22 10 8 5 6 6 11 12 16 17 7 11 9 9 9 11 7 9 7 9 6 3 7 7 3 6 8 10 16 12 8 11 11 11 10 10 15
22 23 24 24 25 27 28 31 32 35 26 8 7 5 2 5 5 10 14 9 12 12 10 9 9 6 7 10 7 6 8 7 7 9 8 2 10 12 14 17 7 9 13 13 13 12 14
22 23 24 24 25 26 27 28 30 33 36 8 5 5 4 8 5 8 10 13 15 13 10 6 10 11 12 11 11 12 11 9 7 10 7 8 12 15 16 17 16 14 15 16 17 17 18
22 22 23 24 26 24 24 25 27 30 39 4 8 7 10 12 7 10 8 12 13 13 3 8 12 14 15 15 13 13 13 11 10 16 12 12 13 15 18 17 18 19 18 20 19 18 17
21 22 23 23 24 22 22 22 23 24 25 6 9 9 8 11 7 7 3 5 9 6 10 15 15 10 13 13 10 13 11 6 7 9 12 13 13 13 17 19 19 18 13 19 19 19 16
21 22 22 24 22 21 21 20 20 19 16 8 8 8 8 10 6 6 7 9 10 11 12 14 11 12 10 8 8 8 10 10 10 13 11 14 14 13 16 18 21 13 17 13 13 17 16
21 21 23 24 22 21 20 20 18 18 15 10 6 5 7 9 12 7 5 8 9 8 10 9 7 8 9 10 10 14 13 15 18 19 17 15 11 14 14 16 20 18 12 12 15 15 14
22 23 21 24 24 21 20 19 19 18 16 10 8 5 6 8 11 11 10 9 7 7 8 7 2 4 6 8 11 15 14 14 8 12 12 9 10 11 15 20 21 15 15 12 10 13 11
19 20 21 24 25 23 22 20 19 18 16 10 6 3 6 8 3 8 9 9 8 8 7 6 2 6 3 8 11 12 12 12 10 15 8 9 12 14 12 13 16 20 7 9 15 6 9
20 20 21 22 24 24 22 21 20 18 17 9 8 5 7 7 8 5 6 8 9 7 8 9 9 7 8 8 10 10 9 10 9 12 12 14 12 9 10 12 15 25 9 6 12 12 13
20 21 22 24 24 23 22 22 20 18 14 9 8 4 5 7 7 7 5 5 6 8 9 5 6 5 6 8 6 6 7 6 10 10 6 3 7 8 7 3 7 10 9 11 19 18 19
Wind_Direction
346 348 345 343 341 337 335 335 330 334 327 321 318 313 306 299 296 295 292 293 292 292 293 293 295 303 281 229 249 117 142 158 182 213 218 208 199 210 224 226 234 231 255 259 246 251 244
349 349 347 342 342 338 337 338 331 329 330 325 321 317 311 304 298 293 291 291 293 291 288 289 292 296 249 252 98 134 153 167 177 203 203 212 214 225 283 257 223 199 235 260 231 226 220
354 352 349 344 342 340 340 336 334 333 330 329 324 319 311 302 295 291 285 287 288 281 279 280 281 267 263 272 148 153 163 192 164 213 192 233 253 216 238 230 236 264 253 237 238 227 231
354 349 346 343 341 344 341 339 338 336 332 327 326 320 313 303 291 289 288 285 278 275 268 262 261 248 283 128 173 172 189 175 186 196 307 184 217 251 270 331 234 240 234 251 193 160 225
351 349 346 344 344 343 340 339 339 339 335 332 327 322 315 305 301 300 298 300 289 268 238 222 217 234 225 131 201 190 194 181 182 206 211 234 236 232 192 236 225 194 243 216 143 225 139
353 351 349 348 346 344 341 340 339 339 336 332 329 323 313 308 307 302 294 283 18 166 205 203 266 239 220 207 174 173 189 232 184 190 198 222 219 213 214 217 255 173 220 174 274 145 211
353 352 351 350 348 345 343 340 339 337 336 334 330 324 317 312 306 297 287 202 203 191 217 248 173 253 136 120 145 173 181 206 196 202 209 208 232 209 30 2 354 9 305 319 108 90 275
351 352 350 348 345 343 342 340 339 338 339 334 328 323 320 312 299 283 269 254 33 343 269 216 245 250 194 180 179 165 187 205 200 226 177 214 222 58 354 306 296 289 278 270 104 209 270
353 351 347 345 343 343 342 341 340 341 340 335 327 322 318 310 305 239 239 285 333 326 260 164 187 190 172 203 168 172 195 224 216 229 218 261 75 99 278 247 287 279 289 291 305 174 236
353 350 347 344 343 343 343 342 341 342 340 335 326 318 309 312 274 242 245 231 277 332 260 147 183 137 171 216 162 131 201 245 229 251 209 288 108 256 269 277 309 306 323 329 287 274 263
352 349 347 344 343 342 342 342 342 341 338 334 326 314 299 270 323 269 25 280 328 230 284 156 132 103 183 220 131 173 197 230 262 205 263 135 180 219 261 342 335 287 345 287 276 266 265
351 349 346 345 344 343 342 344 343 340 336 332 326 311 295 216 224 259 299 290 259 232 187 164 149 193 190 204 186 135 187 232 338 293 217 298 76 281 333 311 268 305 272 255 244 245 242
350 348 346 345 344 343 343 345 343 339 336 331 324 305 238 310 270 19 286 256 225 243 87 153 184 193 221 172 189 217 190 206 231 213 215 190 215 148 264 259 204 245 260 257 220 214 233
350 348 347 345 344 344 346 346 343 339 335 330 324 294 206 260 276 282 257 235 249 237 208 93 163 210 224 191 230 215 244 251 203 273 285 256 193 173 150 275 323 295 310 293 307 298 51
349 348 346 345 345 346 347 346 344 338 335 333 316 199 225 201 222 240 246 234 216 258 239 153 179 229 218 204 265 200 240 256 316 151 264 279 246 118 177 225 256 187 247 0 303 276 267
348 347 347 346 346 348 347 346 343 341 335 339 295 235 172 123 180 221 239 256 278 8 347 226 232 236 255 199 195 227 252 183 237 258 264 318 267 182 140 243 230 259 346 248 215 262 269
345 345 345 346 348 349 347 347 346 344 338 331 255 233 90 166 198 227 240 242 239 140 271 264 260 269 235 277 233 266 237 114 189 174 239 304 244 159 182 217 246 186 223 226 294 299 300
343 343 344 345 348 351 349 348 347 347 340 333 289 258 107 191 226 234 240 241 292 284 191 263 263 281 270 254 250 250 255 230 141 189 218 114 285 262 220 140 290 277 282 290 262 261 233
341 342 343 343 348 351 350 349 345 346 1 314 297 312 136 221 245 239 238 247 240 254 245 233 242 247 240 261 254 249 244 62 162 220 251 170 230 252 236 198 205 248 233 253 268 278 269
340 340 341 342 345 350 350 350 345 339 347 303 290 310 113 234 274 321 311 258 277 209 267 260 254 215 213 237 223 272 234 165 229 220 71 75 271 264 285 311 327 217 225 251 244 257 267
339 339 340 340 345 349 350 347 346 340 332 300 325 48 20 302 332 327 294 290 287 278 199 228 237 231 232 246 234 223 254 200 191 148 207 228 252 265 270 274 277 277 269 260 234 247 261
336 337 338 340 346 347 348 347 346 345 332 308 340 343 342 284 278 286 262 258 270 284 300 230 234 258 234 242 242 267 232 228 223 187 220 219 260 276 278 276 278 266 259 260 265 264 253
333 334 335 339 346 346 348 348 346 351 338 339 358 323 274 293 249 257 337 328 309 331 278 258 283 290 266 296 249 263 257 249 244 255 220 221 247 252 265 269 265 265 258 260 258 249 251
332 332 333 339 343 343 344 347 344 348 355 321 332 302 280 300 307 337 338 295 280 285 279 297 308 286 308 325 300 285 285 236 242 244 237 260 248 250 265 269 266 264 248 286 303 301 278
331 330 333 337 339 339 341 344 342 339 343 314 303 297 310 303 319 283 343 299 297 259 234 264 295 4 337 289 265 245 233 231 235 242 238 233 242 275 272 262 269 260 209 228 254 264 265
330 331 330 332 333 335 336 341 340 334 335 310 296 289 275 302 41 345 308 286 301 327 283 209 111 323 271 265 235 245 254 254 226 177 245 279 258 252 262 266 269 270 282 330 272 257 279
325 326 327 329 329 330 334 337 338 330 329 314 280 253 271 277 294 338 355 343 322 319 292 290 23 292 242 260 259 266 265 280 288 279 243 218 251 241 250 269 300 350 337 215 240 293 358
325 322 319 321 327 328 332 333 332 326 324 321 304 248 271 296 307 353 345 343 336 312 315 25 283 174 255 252 270 279 280 280 293 285 280 288 302 225 249 271 249 3 3 359 347 357 6
331 325 325 325 324 326 328 329 327 322 320 324 275 156 224 259 342 326 322 329 345 338 307 282 329 291 331 309 357 317 312 294 302 294 40 305 349 326 22 11 14 39 47 3 357 360 356